Content
SEND FEEDBACK

Daily
Averages
Monthly
Summary
Switzerland

GENEVA, SWITZERLAND


Home > Europe > Switzerland
Elevation: 415 meters     Latitude: 46 15N     Longitude: 006 08E

WEATHER
 
SELECT A DAY
Number of Records: 305,866;   Date Range: 7/1/96 - 8/12/14
 
SHARE

PRINT THIS DATA

[ ← Previous Day ]
WEATHER ALMANAC - 19 FEBRUARY, 2013
[ Next Day → ]
[ °F ]   °C
Weather ElementAverageHighLow
Temperature-0.4 °C6 °C (2:50 pm)-5 °C (3:50 am)
Dewpoint-4.1 °C-2 °C (9:50 am)-6.7 °C (7:00 am)
Humidity76.5 %93 % (12:50 am)41 % (5:00 pm)
Barometer1017.9 hPa1022.4 hPa (2:00 am)1015.2 hPa (3:20 pm)
Wind Speed2.1 km/h9.3 km/h (5:00 pm)
Weather ElementAverage
Visibility7.7 km
Wind DirectionENE (77 °)

Weather ElementTotal
Precipitation---
Heating Degree Days17.8 (Base 18.3)
Averaged from 61 records on 19 February, 2013
WEATHER CONDITIONS BREAKOUT
WIND DIRECTION BREAKOUT
WEATHER BY HOUR - 19 FEBRUARY, 2013
[ °F ]   °C
Local TimeTemperatureDewpointHumidityBarometerVisibilityWind DirectionWind SpeedGust SpeedPrecipitationEventsConditions
12:50 AM-4 °C-5 °C93 %1019 hPaCalmClear
1:20 AM-4 °C-5 °C93 %1019 hPaCalmClear
1:50 AM-4 °C-5 °C93 %1019 hPaCalmClear
2:00 AM-3.9 °C-5.6 °C84 %1022.4 hPaCalm
2:50 AM-4 °C-5 °C93 %1019 hPaCalmClear
3:00 AM-4.4 °C-5.6 °C86 %1022.4 hPaWest (280°)1.9 km/h
3:20 AM-4 °C-5 °C93 %1019 hPaNW (310°)1.9 km/hClear
3:50 AM-5 °C-6 °C93 %1019 hPa9 kmCalm
4:20 AM-5 °C-6 °C93 %1019 hPa9 kmCalm
4:50 AM-5 °C-6 °C93 %1019 hPa9 kmWNW (290°)1.9 km/h
5:20 AM-5 °C-6 °C93 %1019 hPa9 kmCalm
5:50 AM-5 °C-6 °C93 %1019 hPa8 kmWest (280°)1.9 km/h
6:00 AM-5 °C-6.1 °C87 %1022.4 hPaNW (310°)3.7 km/h
6:20 AM-5 °C-6 °C93 %1017.9 hPa6.9 kmCalm
6:50 AM-5 °C-6 °C93 %1017.9 hPa6.9 kmCalm
7:00 AM-5 °C-6.7 °C86 %1022 hPa6.4 kmNW (310°)1.9 km/hMist
7:20 AM-5 °C-6 °C93 %1017.9 hPa5 kmNW (310°)1.9 km/hMist
7:50 AM-5 °C-6 °C93 %1019 hPa5 kmCalmMist
8:00 AM-4.4 °C-6.1 °C81 %1022.4 hPaWNW (300°)1.9 km/h
8:20 AM-5 °C-6 °C93 %1019 hPa5 kmWNW (290°)1.9 km/hMist
8:50 AM-4 °C-5 °C93 %1019 hPa6 kmWSW (250°)1.9 km/h
9:00 AM-3.3 °C-5 °C83 %1022 hPaWest (260°)1.9 km/h
9:20 AM-2 °C-4 °C86 %1019 hPa5 kmCalmMist
9:50 AM0 °C-2 °C87 %1019 hPa6 kmCalm
10:20 AM0 °C-3 °C80 %1017.9 hPa6 kmCalm
10:50 AM1 °C-3 °C75 %1017.9 hPa6.9 kmCalm
11:00 AM1.1 °C-2.8 °C66 %1020.7 hPaNorth (350°)1.9 km/h
11:20 AM2 °C-2 °C75 %1017.9 hPa8 kmVariable1.9 km/h
11:50 AM3 °C-2 °C70 %1017.9 hPa8 kmVariable3.7 km/h
12:00 PM2.2 °C-3.3 °C56 %1020.3 hPaESE (110°)3.7 km/h
12:20 PM3 °C-3 °C65 %1017.9 hPa9 kmVariable1.9 km/h
12:50 PM4 °C-3 °C61 %1017.3 hPaCalmClear
1:00 PM2.8 °C-3.9 °C50 %1019.3 hPa11.3 kmENE (60°)3.7 km/hHaze
1:20 PM4 °C-3 °C61 %1017.3 hPaVariable5.6 km/hClear
1:50 PM5 °C-3 °C57 %1017.3 hPaEast (80°)5.6 km/hClear
2:00 PM3.9 °C-3.3 °C48 %1018.3 hPaENE (60°)5.6 km/h
2:20 PM5 °C-3 °C57 %1016.3 hPaVariable3.7 km/hClear
2:50 PM6 °C-3 °C53 %1016.3 hPaVariable1.9 km/hClear
3:20 PM5 °C-3 °C57 %1015.2 hPaVariable1.9 km/hClear
3:50 PM5 °C-3 °C57 %1015.2 hPaVariable3.7 km/hClear
4:20 PM5 °C-3 °C57 %1015.2 hPaVariable3.7 km/hClear
4:50 PM5 °C-3 °C57 %1015.2 hPaENE (70°)7.4 km/hClear
5:00 PM4.4 °C-3.9 °C41 %1016.6 hPaENE (60°)9.3 km/h
5:20 PM5 °C-3 °C57 %1015.2 hPaNE (50°)7.4 km/hClear
5:50 PM4 °C-3 °C61 %1015.2 hPaNE (50°)5.6 km/hClear
6:00 PM3.9 °C-3.9 °C46 %1016.6 hPaNNE (30°)5.6 km/h
6:20 PM3 °C-3 °C65 %1015.2 hPaNNE (20°)1.9 km/hClear
6:50 PM1 °C-3 °C75 %1015.2 hPaCalmClear
7:00 PM1.7 °C-3.3 °C60 %1017.3 hPa11.3 kmNorth1.9 km/hHaze
7:20 PM1 °C-3 °C75 %1015.2 hPaCalmClear
7:50 PM0 °C-3 °C80 %1015.2 hPaCalmClear
8:20 PM0 °C-3 °C80 %1015.2 hPaCalmClear
8:50 PM0 °C-3 °C80 %1015.2 hPaCalmClear
9:00 PM0 °C-3.3 °C71 %1017.9 hPaNNE (20°)1.9 km/h
9:20 PM0 °C-3 °C80 %1015.2 hPa9 kmCalmScattered Clouds
9:50 PM-1 °C-3 °C86 %1015.2 hPa9 kmVariable1.9 km/hScattered Clouds
10:20 PM-2 °C-4 °C86 %1016.3 hPa9 kmVariable1.9 km/h
10:50 PM-2 °C-3 °C93 %1015.2 hPa8 kmWSW (240°)1.9 km/h
11:00 PM-1.7 °C-3.3 °C81 %1018.3 hPaSW (230°)3.7 km/h
11:20 PM-2 °C-3 °C93 %1015.2 hPa8 kmVariable1.9 km/h
11:50 PM-2 °C-4 °C86 %1015.2 hPa8 kmCalm
Hourly data recorded from LSGG, located 0 kilometers away from Geneva, Switzerland







STORIES FROM OUR PARTNERS